Terminal Aerodrome Forecast
Issued by NWS

Home | Current Version | Previous Version | Text Only | Print | Product List | Glossary On
Versions: 1 2 3 4 5 6 7 8 9 10 11 12 13 14 15 16 17 18 19 20 21 22 23 24
000
FTUS44 KLZK 181100
TAFBPK
TAF
KBPK 181137Z 1812/1912 VRB03KT 1SM BR VCSH OVC002
      TEMPO 1812/1814 1/2SM FG
     FM181400 09004KT 4SM BR OVC005
      TEMPO 1814/1818 P6SM NSW SCT005 OVC012
     FM181800 10005KT P6SM BKN025 OVC050
     FM182100 11006KT P6SM BKN050
     FM190000 10005KT P6SM BKN250
     FM190600 VRB03KT 2SM BR OVC005=

USA.gov is the U.S. government's official web portal to all federal, state and local government web resources and services.